Weather History for Calvi, France

Change the Weather History Date:

Sunday, November 11, 2012

  Actual Average Record
Temperature  
Mean Temperature 62 °F -  
Max Temperature 66 °F 59 °F 71 °F (2002)
Min Temperature 59 °F 47 °F 44 °F (2000)
Degree Days  
Heating Degree Days 2    
Growing Degree Days 12 (Base 50)    
Moisture  
Dew Point 57 °F    
Average Humidity 87    
Maximum Humidity 94    
Minimum Humidity 77    
Precipitation  
Precipitation 0.00 in - - ()
Sea Level Pressure  
Sea Level Pressure 29.80 in    
Wind  
Wind Speed 5 mph ()    
Max Wind Speed 9 mph    
Max Gust Speed -    
Visibility 5.9 miles    
Events Rain    
Averages and records for this station are not official NWS values.
T = Trace of Precipitation, MM = Missing Value Source: Averaged Metar Reports

Daily Weather History Graph

Daily Weather History Graph

Search for Another Location

Airport:

Trip Planner

Search our weather history database for the weather conditions in past years. The results will help you decide how hot, cold, wet, or windy it might be!

Date:

Astronomy

Nov. 11, 2012 Rise Set
Actual Time 7:11 AM CET 5:05 PM CET
Civil Twilight 6:41 AM CET 5:35 PM CET
Nautical Twilight 6:07 AM CET 6:09 PM CET
Astronomical Twilight 5:34 AM CET 6:42 PM CET
Moon 4:03 AM CET (11/11) 3:21 PM CET (11/11)
Length of Visible Light 10h 54m
Length of Day
9h 54m
Waning Crescent, 9% of the Moon is Illuminated
Nov 11
Waning Crescent
Nov 13
New
Nov 20
First Quarter
Nov 28
Full
Dec 6
Last Quarter

Hourly Weather History & Observations

Time (CET) Temp. Dew Point Humidity Pressure Visibility Wind Dir Wind Speed Gust Speed Precip Events Conditions
7:00 AM 59.0 °F 57.2 °F 94% 29.68 in 5.0 mi Variable 3.5 mph - N/A Rain Light Rain
7:30 AM 59.0 °F 57.2 °F 94% 29.68 in 6.2 mi North 8.1 mph - N/A Rain Light Rain
8:00 AM 59.0 °F 57.2 °F 94% 29.71 in 6.2 mi ENE 9.2 mph - N/A Rain Light Rain
8:30 AM 59.0 °F 57.2 °F 94% 29.71 in 5.0 mi Variable 3.5 mph - N/A Rain Light Rain
9:00 AM 59.0 °F 57.2 °F 94% 29.74 in 5.0 mi North 3.5 mph - N/A Rain Light Rain
9:30 AM 59.0 °F 57.2 °F 94% 29.77 in 2.8 mi ENE 4.6 mph - N/A Rain Light Rain
10:00 AM 59.0 °F 57.2 °F 94% 29.77 in 5.6 mi ENE 5.8 mph - N/A Rain Light Rain
10:30 AM 59.0 °F 57.2 °F 94% 29.80 in 6.2 mi North 6.9 mph - N/A   Mostly Cloudy
11:00 AM 59.0 °F 57.2 °F 94% 29.80 in 6.2 mi NE 5.8 mph - N/A   Scattered Clouds
11:30 AM 60.8 °F 57.2 °F 88% 29.83 in 6.2 mi East 8.1 mph - N/A   Scattered Clouds
12:00 PM 60.8 °F 59.0 °F 94% 29.80 in 6.2 mi ENE 8.1 mph - N/A   Partly Cloudy
12:30 PM 64.4 °F 59.0 °F 83% 29.80 in 6.2 mi NE 5.8 mph - N/A   Partly Cloudy
1:05 PM 66.2 °F 59.0 °F 78% 29.83 in 6.2 mi NNE 4.6 mph - N/A   Partly Cloudy
1:30 PM 64.4 °F 57.2 °F 77% 29.83 in 6.2 mi North 4.6 mph - N/A   Scattered Clouds
2:00 PM 64.4 °F 57.2 °F 77% 29.83 in 6.2 mi Variable 3.5 mph - N/A   Mostly Cloudy
2:30 PM 64.4 °F 57.2 °F 77% 29.83 in 6.2 mi Variable 2.3 mph - N/A   Mostly Cloudy
3:00 PM 64.4 °F 57.2 °F 77% 29.83 in 6.2 mi Variable 2.3 mph - N/A   Mostly Cloudy
3:30 PM 62.6 °F 57.2 °F 82% 29.83 in 6.2 mi NE 3.5 mph - N/A   Mostly Cloudy
4:00 PM 62.6 °F 55.4 °F 77% 29.86 in 6.2 mi NNE 8.1 mph - N/A   Mostly Cloudy
4:30 PM 62.6 °F 57.2 °F 82% 29.86 in 6.2 mi North 4.6 mph - N/A   Mostly Cloudy
5:00 PM 60.8 °F 57.2 °F 88% 29.86 in 6.2 mi Calm Calm - N/A   Mostly Cloudy
5:30 PM 59.0 °F 55.4 °F 88% 29.89 in 6.2 mi Calm Calm - N/A   Scattered Clouds